TimeEST,TemperatureF,Dew PointF,Humidity,Sea Level PressureIn,VisibilityMPH,Wind Direction,Wind SpeedMPH,Gust SpeedMPH,PrecipitationIn,Events,Conditions,WindDirDegrees,DateUTC
12:54 AM,37.9,27.0,65,30.24,10.0,SW,5.8,-,N/A,,Clear,230,2013-11-15 05:54:00
1:54 AM,37.9,28.0,68,30.25,10.0,Calm,Calm,-,N/A,,Partly Cloudy,0,2013-11-15 06:54:00
2:54 AM,37.9,28.9,70,30.25,10.0,South,4.6,-,N/A,,Scattered Clouds,190,2013-11-15 07:54:00
3:54 AM,37.0,30.0,76,30.25,10.0,South,5.8,-,N/A,,Scattered Clouds,190,2013-11-15 08:54:00
4:54 AM,36.0,30.0,79,30.26,10.0,Calm,Calm,-,N/A,,Scattered Clouds,0,2013-11-15 09:54:00
5:54 AM,36.0,28.9,76,30.25,10.0,Calm,Calm,-,N/A,,Scattered Clouds,0,2013-11-15 10:54:00
6:54 AM,37.9,30.9,76,30.27,10.0,Calm,Calm,-,N/A,,Overcast,0,2013-11-15 11:54:00
7:54 AM,39.9,32.0,73,30.28,10.0,SSW,4.6,-,N/A,,Overcast,200,2013-11-15 12:54:00
8:54 AM,42.1,32.0,67,30.29,10.0,WSW,9.2,-,N/A,,Overcast,240,2013-11-15 13:54:00
9:54 AM,46.0,30.9,56,30.29,10.0,WSW,9.2,-,N/A,,Overcast,250,2013-11-15 14:54:00
10:54 AM,48.9,30.0,48,30.26,10.0,SW,4.6,-,N/A,,Overcast,230,2013-11-15 15:54:00
11:54 AM,51.1,30.9,46,30.25,10.0,West,6.9,-,N/A,,Overcast,260,2013-11-15 16:54:00
12:54 PM,54.0,28.9,38,30.23,10.0,West,4.6,-,N/A,,Overcast,260,2013-11-15 17:54:00
1:54 PM,55.9,28.0,34,30.20,10.0,SSW,5.8,-,N/A,,Mostly Cloudy,200,2013-11-15 18:54:00
2:54 PM,55.0,27.0,34,30.20,10.0,SSW,6.9,-,N/A,,Overcast,210,2013-11-15 19:54:00
3:54 PM,54.0,30.0,40,30.22,10.0,SW,5.8,-,N/A,,Overcast,220,2013-11-15 20:54:00
4:54 PM,54.0,28.9,38,30.21,10.0,SSW,5.8,-,N/A,,Overcast,200,2013-11-15 21:54:00
5:54 PM,50.0,30.9,48,30.22,10.0,South,3.5,-,N/A,,Overcast,190,2013-11-15 22:54:00
6:54 PM,48.9,33.1,54,30.23,10.0,SSW,4.6,-,N/A,,Mostly Cloudy,200,2013-11-15 23:54:00
7:54 PM,48.0,30.9,52,30.24,10.0,WSW,3.5,-,N/A,,Mostly Cloudy,240,2013-11-16 00:54:00
8:54 PM,46.0,32.0,58,30.25,10.0,WSW,5.8,-,N/A,,Mostly Cloudy,250,2013-11-16 01:54:00
9:54 PM,45.0,35.1,68,30.27,10.0,South,3.5,-,N/A,,Mostly Cloudy,190,2013-11-16 02:54:00
10:54 PM,44.1,36.0,73,30.26,10.0,South,5.8,-,N/A,,Mostly Cloudy,190,2013-11-16 03:54:00
11:54 PM,45.0,36.0,71,30.27,10.0,West,3.5,-,N/A,,Overcast,260,2013-11-16 04:54:00